Regional Weather Roundup
Issued by NWS

Home | Current Version | Previous Version | Text Only | Print | Product List | Glossary Off
Versions: 1 2 3 4 5 6 7 8 9 10 11 12 13 14 15 16 17 18 19 20 21 22 23 24 25 26 27 28 29 30 31 32 33 34 35 36 37 38 39 40 41 42 43 44 45 46 47 48 49 50

000
ASUS43 KLMK 241102
RWRKY
KENTUCKY REGIONAL WEATHER ROUNDUP
NATIONAL WEATHER SERVICE LOUISVILLE KY
700 AM EDT THU JUL 24 2014

NOTE "FAIR" INDICATES FEW OR NO CLOUDS BELOW 12,000 FEET
WITH NO SIGNIFICANT WEATHER AND/OR OBSTRUCTIONS TO VISIBILITY.

KYZ001>023-026-027-061>063-070>075-241200-
WESTERN AND SOUTH CENTRAL KENTUCKY

CITY           SKY/WX    TMP DP  RH WIND       PRES   REMARKS
PADUCAH        CLEAR     59  52  77 N6        30.04R
HENDERSON      PTCLDY    61  52  72 N3        30.02R
OWENSBORO      MOCLDY    64  58  81 N5        30.01S
HOPKINSVILLE   CLOUDY    68  62  80 NW5       30.00R
BOWLING GREEN  CLOUDY    71  64  78 N5        29.98R
GLASGOW        CLOUDY    70  68  95 N5        29.97R
$$

KYZ024-025-028>034-038-045-046-053-241200-
NORTH CENTRAL KENTUCKY

CITY           SKY/WX    TMP DP  RH WIND       PRES   REMARKS
LOUISVILLE/SDF MOCLDY    70  62  76 NE10      30.00R
LOUISVILLE/LOU MOCLDY    69  62  78 NE7       30.00R
FORT KNOX      CLOUDY    69  65  89 N8        29.98R
$$

KYZ035>037-039>044-047>052-055>060-089>105-241200-
NORTHEAST KENTUCKY

CITY           SKY/WX    TMP DP  RH WIND       PRES   REMARKS
LEXINGTON      CLOUDY    67  62  84 NE12      29.98S
COVINGTON      PTCLDY    62  54  74 N18       30.03R
FRANKFORT      CLOUDY    65  60  84 N8        29.99R
$$

KYZ054-064>069-076>088-106>120-241200-
SOUTHEAST KENTUCKY

CITY           SKY/WX    TMP DP  RH WIND       PRES   REMARKS
JACKSON        FOG       68  67  96 CALM      29.98R VSB 1/4
LONDON         CLOUDY    69  67  93 CALM      29.98R
SOMERSET       CLOUDY    70  70 100 CALM      29.98R FOG
MIDDLESBORO    CLOUDY    67  67 100 CALM      29.98S FOG
MONTICELLO     CLOUDY    70  70 100 CALM      29.99R FOG
$$



USA.gov is the U.S. government's official web portal to all federal, state and local government web resources and services.